Ellsworth Air Force Base, SD

4:42 PM MST on February 09, 2016 (GMT -0700)
Ellsworth Air Force Base

Weather History for KRCA - March, 2013

Change the Weather History Date:

Saturday, March 16, 2013

  Actual Average Record
Temperature  
Mean Temperature 28 °F -  
Max Temperature 32 °F 42 °F 79 °F (2012)
Min Temperature 23 °F 22 °F 10 °F (2002)
Degree Days  
Heating Degree Days 38    
Moisture  
Dew Point 26 °F    
Average Humidity 91    
Maximum Humidity 100    
Minimum Humidity 69    
Precipitation  
Precipitation 0.03 in - - ()
Sea Level Pressure  
Sea Level Pressure 30.06 in    
Wind  
Wind Speed 10 mph (SE)    
Max Wind Speed 17 mph    
Max Gust Speed -    
Visibility 4 miles    
Events Fog , Snow    
Averages and records for this station are not official NWS values.
T = Trace of Precipitation, MM = Missing Value Source: NWS Daily Summary

Daily Weather History Graph

Daily Weather History Graph

Search for Another Location

Airport or City:

Trip Planner

Search our weather history database for the weather conditions in past years. The results will help you decide how hot, cold, wet, or windy it might be!

Date:

Astronomy

Mar. 16, 2013 Rise Set
Actual Time 7:02 AM MDT 7:00 PM MDT
Civil Twilight 6:33 AM MDT 7:29 PM MDT
Nautical Twilight 5:59 AM MDT 8:02 PM MDT
Astronomical Twilight 5:25 AM MDT 8:37 PM MDT
Moon 9:22 AM MDT (3/16) No Moon Set
Length of Visible Light 12h 55m
Length of Day
11h 57m
Waxing Crescent, 23% of the Moon is Illuminated
Mar 16
Waxing Crescent
Mar 19
First Quarter
Mar 27
Full
Apr 2
Last Quarter
Apr 10
New

Hourly Weather History & Observations

Time (MDT) Temp. Windchill Dew Point Humidity Pressure Visibility Wind Dir Wind Speed Gust Speed Precip Events Conditions
12:15 AM 32.0 °F 25.6 °F 23.0 °F 69% 30.07 in 10.0 mi NNE 6.9 mph - N/A   Overcast
12:55 AM 32.4 °F 24.6 °F 25.9 °F 77% 30.09 in 10.0 mi North 9.2 mph - N/A   Overcast
1:55 AM 31.5 °F 21.8 °F 24.4 °F 75% 30.07 in 10.0 mi North 12.7 mph - N/A   Overcast
2:55 AM 30.4 °F 22.9 °F 23.5 °F 76% 30.08 in 10.0 mi North 8.1 mph - N/A   Overcast
3:55 AM 29.3 °F 20.8 °F 23.0 °F 77% 30.08 in 10.0 mi NNE 9.2 mph - N/A   Overcast
4:55 AM 28.6 °F 23.5 °F 22.1 °F 77% 30.08 in 10.0 mi NNE 4.6 mph - N/A   Overcast
5:55 AM 28.6 °F - 21.9 °F 76% 30.09 in 10.0 mi Calm Calm - N/A   Overcast
5:56 AM 28.4 °F - 21.2 °F 74% 30.09 in 10.0 mi Calm Calm - N/A   Overcast
6:05 AM 28.4 °F 24.6 °F 23.0 °F 80% 30.09 in 10.0 mi ENE 3.5 mph - N/A   Overcast
6:10 AM 28.4 °F 23.3 °F 21.2 °F 74% 30.09 in 10.0 mi NNE 4.6 mph - N/A   Overcast
6:55 AM 28.2 °F 23.1 °F 21.9 °F 77% 30.09 in 10.0 mi ESE 4.6 mph - N/A   Overcast
7:55 AM 27.7 °F 21.3 °F 22.1 °F 80% 30.11 in 10.0 mi ESE 5.8 mph - N/A   Overcast
8:33 AM 28.4 °F 23.3 °F 23.0 °F 80% 30.11 in 10.0 mi ESE 4.6 mph - N/A   Overcast
8:55 AM 28.8 °F 21.7 °F 23.5 °F 81% 30.11 in 10.0 mi SE 6.9 mph - N/A   Overcast
9:00 AM 28.4 °F 23.3 °F 23.0 °F 80% 30.12 in 10.0 mi SE 4.6 mph - N/A   Overcast
9:55 AM 29.8 °F 23.9 °F 24.1 °F 79% 30.12 in 10.0 mi SSE 5.8 mph - N/A   Overcast
10:15 AM 30.2 °F 22.6 °F 24.8 °F 80% 30.13 in 10.0 mi SSE 8.1 mph - N/A   Overcast
10:55 AM 30.6 °F 22.4 °F 24.3 °F 77% 30.13 in 10.0 mi SSE 9.2 mph - N/A   Overcast
11:55 AM 32.4 °F 22.5 °F 24.8 °F 74% 30.11 in 10.0 mi SSE 13.8 mph - N/A   Overcast
12:14 PM 32.0 °F 22.5 °F 24.8 °F 75% 30.11 in 10.0 mi SSE 12.7 mph - N/A   Overcast
12:19 PM 32.0 °F 22.1 °F 26.6 °F 80% 30.11 in 7.0 mi South 13.8 mph - N/A   Overcast
12:50 PM 32.0 °F 23.0 °F 28.4 °F 87% 30.10 in 4.0 mi SSE 11.5 mph - N/A Snow Light Snow
12:55 PM 31.1 °F 22.4 °F 28.0 °F 88% 30.09 in 3.0 mi SSE 10.4 mph - 0.00 in Snow Light Snow
12:57 PM 30.2 °F 20.2 °F 28.4 °F 93% 30.09 in 2.5 mi SSE 12.7 mph - N/A Snow Light Snow
12:59 PM 30.2 °F 19.8 °F 28.4 °F 93% 30.09 in 2.5 mi SSE 13.8 mph - N/A Snow Light Snow
1:00 PM 30.2 °F 20.2 °F 28.4 °F 93% 30.09 in 2.0 mi SSE 12.7 mph - N/A Snow Light Snow
1:01 PM 30.2 °F 20.2 °F 28.4 °F 93% 30.09 in 2.0 mi SSE 12.7 mph - N/A Snow Light Snow
1:03 PM 30.2 °F 20.2 °F 28.4 °F 93% 30.09 in 2.0 mi SSE 12.7 mph - N/A Snow Light Snow
1:09 PM 30.2 °F 20.8 °F 28.4 °F 93% 30.09 in 2.5 mi SSE 11.5 mph - N/A Snow Light Snow
1:14 PM 30.2 °F 20.8 °F 28.4 °F 93% 30.09 in 2.5 mi SSE 11.5 mph - N/A Snow Light Snow
1:16 PM 30.2 °F 20.2 °F 28.4 °F 93% 30.08 in 2.0 mi SSE 12.7 mph - N/A Snow Light Snow
1:19 PM 30.2 °F 20.2 °F 28.4 °F 93% 30.09 in 2.0 mi SSE 12.7 mph - N/A Snow Light Snow
1:27 PM 30.2 °F 19.8 °F 28.4 °F 93% 30.09 in 2.0 mi SSE 13.8 mph - N/A Snow Light Snow
1:30 PM 30.2 °F 20.2 °F 28.4 °F 93% 30.09 in 1.8 mi SSE 12.7 mph - N/A Snow Light Snow
1:32 PM 30.2 °F 20.2 °F 28.4 °F 93% 30.08 in 1.8 mi SSE 12.7 mph - N/A Snow Light Snow
1:55 PM 30.2 °F 20.8 °F 28.4 °F 93% 30.07 in 1.8 mi SSE 11.5 mph - 0.00 in Snow Light Snow
1:57 PM 30.2 °F 20.8 °F 28.4 °F 93% 30.07 in 2.0 mi SSE 11.5 mph - N/A Snow Light Snow
2:18 PM 30.2 °F 20.2 °F 28.4 °F 93% 30.05 in 2.5 mi SSE 12.7 mph - N/A Snow Light Snow
2:26 PM 30.2 °F 20.2 °F 28.4 °F 93% 30.05 in 3.0 mi SSE 12.7 mph - N/A Snow Light Snow
2:47 PM 30.2 °F 20.2 °F 28.4 °F 93% 30.04 in 2.5 mi SSE 12.7 mph - N/A Snow Light Snow
2:55 PM 30.0 °F 19.5 °F 28.2 °F 93% 30.04 in 2.5 mi South 13.8 mph - 0.01 in Snow Light Snow
2:57 PM 30.2 °F 20.8 °F 28.4 °F 93% 30.04 in 3.0 mi SSE 11.5 mph - N/A Snow Light Snow
3:03 PM 30.2 °F 20.2 °F 28.4 °F 93% 30.04 in 2.5 mi SSE 12.7 mph - N/A Snow Light Snow
3:18 PM 30.2 °F 21.9 °F 28.4 °F 93% 30.04 in 2.0 mi SE 9.2 mph - N/A Snow Light Snow
3:20 PM 30.2 °F 21.3 °F 28.4 °F 93% 30.04 in 1.8 mi SE 10.4 mph - N/A Snow Light Snow
3:23 PM 30.2 °F 21.3 °F 28.4 °F 93% 30.04 in 1.5 mi SSE 10.4 mph - N/A Snow Light Snow
3:25 PM 30.2 °F 21.9 °F 28.4 °F 93% 30.04 in 1.8 mi SSE 9.2 mph - N/A Snow Light Snow
3:44 PM 30.2 °F 20.2 °F 28.4 °F 93% 30.03 in 1.5 mi SSE 12.7 mph - N/A Snow Light Snow
3:54 PM 30.2 °F 20.8 °F 28.4 °F 93% 30.03 in 1.2 mi SSE 11.5 mph - N/A Snow Light Snow
3:55 PM 29.8 °F 20.3 °F 28.4 °F 94% 30.03 in 1.2 mi SE 11.5 mph - 0.00 in Snow Light Snow
4:00 PM 30.2 °F 20.2 °F 28.4 °F 93% 30.04 in 1.0 mi SE 12.7 mph - N/A Snow Light Snow
4:07 PM 30.2 °F 20.8 °F 28.4 °F 93% 30.03 in 0.8 mi SE 11.5 mph - N/A Snow Light Snow
4:14 PM 30.2 °F 19.8 °F 28.4 °F 93% 30.04 in 0.8 mi SE 13.8 mph - N/A Snow Light Snow
4:24 PM 30.2 °F 19.8 °F 28.4 °F 93% 30.04 in 0.8 mi SE 13.8 mph - N/A Snow Light Snow
4:25 PM 30.2 °F 19.8 °F 28.4 °F 93% 30.04 in 0.8 mi SE 13.8 mph - N/A Snow Light Snow
4:26 PM 30.2 °F 19.3 °F 28.4 °F 93% 30.04 in 0.5 mi SE 15.0 mph - N/A Fog , Snow Light Freezing Fog
4:33 PM 28.4 °F 17.0 °F 28.4 °F 100% 30.03 in 0.5 mi SE 15.0 mph - N/A Fog , Snow Light Freezing Fog
4:34 PM 28.4 °F 17.0 °F 28.4 °F 100% 30.03 in 0.8 mi SE 15.0 mph - N/A Snow Light Snow
4:39 PM 28.4 °F 17.5 °F 28.4 °F 100% 30.03 in 0.8 mi SE 13.8 mph - N/A Snow Light Snow
4:40 PM 28.4 °F 17.5 °F 28.4 °F 100% 30.03 in 0.8 mi ESE 13.8 mph - N/A Snow Light Snow
4:41 PM 28.4 °F 18.0 °F 28.4 °F 100% 30.03 in 1.0 mi ESE 12.7 mph - N/A Snow Light Snow
4:43 PM 28.4 °F 18.5 °F 28.4 °F 100% 30.03 in 1.0 mi ESE 11.5 mph - N/A Snow Light Snow
4:46 PM 28.4 °F 19.1 °F 28.4 °F 100% 30.04 in 1.2 mi ESE 10.4 mph - N/A Snow Light Snow
4:48 PM 28.4 °F 19.1 °F 28.4 °F 100% 30.04 in 1.2 mi ESE 10.4 mph - N/A Snow Light Snow
4:51 PM 28.4 °F 18.5 °F 28.4 °F 100% 30.04 in 1.2 mi ESE 11.5 mph - N/A Snow Light Snow
4:55 PM 28.8 °F 20.2 °F 27.5 °F 95% 30.04 in 1.2 mi ESE 9.2 mph - 0.01 in Snow Light Snow
5:01 PM 28.4 °F 18.5 °F 26.6 °F 93% 30.04 in 1.0 mi ESE 11.5 mph - N/A Snow Light Snow
5:05 PM 28.4 °F 18.5 °F 26.6 °F 93% 30.03 in 0.8 mi ESE 11.5 mph - N/A Snow Light Snow
5:07 PM 28.4 °F 18.0 °F 26.6 °F 93% 30.04 in 0.8 mi ESE 12.7 mph - N/A Snow Light Snow
5:09 PM 28.4 °F 17.5 °F 26.6 °F 93% 30.03 in 0.8 mi SE 13.8 mph - N/A Snow Light Snow
5:10 PM 28.4 °F 17.5 °F 26.6 °F 93% 30.03 in 0.8 mi ESE 13.8 mph - N/A Snow Light Snow
5:11 PM 28.4 °F 17.5 °F 26.6 °F 93% 30.03 in 0.8 mi ESE 13.8 mph - N/A Snow Light Snow
5:13 PM 28.4 °F 18.0 °F 26.6 °F 93% 30.03 in 1.0 mi SE 12.7 mph - N/A Snow Light Snow
5:18 PM 28.4 °F 17.5 °F 26.6 °F 93% 30.03 in 1.2 mi SE 13.8 mph - N/A Snow Light Snow
5:21 PM 28.4 °F 17.5 °F 26.6 °F 93% 30.03 in 1.0 mi SE 13.8 mph - N/A Snow Light Snow
5:29 PM 28.4 °F 17.5 °F 26.6 °F 93% 30.03 in 1.2 mi SE 13.8 mph - N/A Snow Light Snow
5:34 PM 28.4 °F 17.5 °F 26.6 °F 93% 30.03 in 1.0 mi SE 13.8 mph - N/A Snow Light Snow
5:39 PM 28.4 °F 18.5 °F 26.6 °F 93% 30.03 in 0.8 mi SE 11.5 mph - N/A Snow Light Snow
5:40 PM 28.4 °F 18.0 °F 26.6 °F 93% 30.04 in 0.8 mi SE 12.7 mph - N/A Snow Light Snow
5:41 PM 28.4 °F 18.0 °F 26.6 °F 93% 30.04 in 0.8 mi SE 12.7 mph - N/A Snow Light Snow
5:52 PM 28.4 °F 18.5 °F 26.6 °F 93% 30.05 in 0.8 mi ESE 11.5 mph - N/A Snow Light Snow
5:53 PM 28.4 °F 18.0 °F 26.6 °F 93% 30.05 in 0.8 mi ESE 12.7 mph - N/A Snow Light Snow
5:55 PM 27.7 °F 17.1 °F 26.4 °F 95% 30.05 in 1.0 mi ESE 12.7 mph - 0.00 in Snow Light Snow
6:03 PM 28.4 °F 19.7 °F 26.6 °F 93% 30.05 in 1.0 mi ESE 9.2 mph - N/A Snow Light Snow
6:06 PM 28.4 °F 19.1 °F 26.6 °F 93% 30.05 in 0.8 mi ESE 10.4 mph - N/A Snow Light Snow
6:07 PM 28.4 °F 18.5 °F 26.6 °F 93% 30.05 in 0.8 mi ESE 11.5 mph - N/A Snow Light Snow
6:09 PM 28.4 °F 18.5 °F 26.6 °F 93% 30.05 in 0.8 mi ESE 11.5 mph - N/A Snow Light Snow
6:10 PM 28.4 °F 18.0 °F 26.6 °F 93% 30.05 in 0.8 mi ESE 12.7 mph - N/A Snow Light Snow
6:11 PM 28.4 °F 18.0 °F 26.6 °F 93% 30.05 in 0.8 mi ESE 12.7 mph - N/A Snow Light Snow
6:15 PM 28.4 °F 17.5 °F 26.6 °F 93% 30.05 in 1.0 mi ESE 13.8 mph - N/A Snow Light Snow
6:26 PM 26.6 °F 16.2 °F 26.6 °F 100% 30.05 in 1.0 mi ESE 11.5 mph - N/A Snow Light Snow
6:27 PM 26.6 °F 15.7 °F 26.6 °F 100% 30.05 in 1.0 mi ESE 12.7 mph - N/A Snow Light Snow
6:33 PM 26.6 °F 16.2 °F 26.6 °F 100% 30.06 in 1.0 mi ESE 11.5 mph - N/A Snow Light Snow
6:37 PM 26.6 °F 16.2 °F 26.6 °F 100% 30.06 in 1.2 mi ESE 11.5 mph - N/A Snow Light Snow
6:40 PM 26.6 °F 14.7 °F 26.6 °F 100% 30.06 in 1.5 mi ESE 15.0 mph - N/A Snow Light Snow
6:42 PM 26.6 °F 15.7 °F 24.8 °F 93% 30.05 in 1.8 mi ESE 12.7 mph - N/A Snow Light Snow
6:44 PM 26.6 °F 16.2 °F 24.8 °F 93% 30.06 in 2.0 mi ESE 11.5 mph - N/A Snow Light Snow
6:47 PM 26.6 °F 16.2 °F 24.8 °F 93% 30.06 in 2.5 mi ESE 11.5 mph - N/A Snow Light Snow
6:51 PM 26.6 °F 15.2 °F 24.8 °F 93% 30.06 in 3.0 mi ESE 13.8 mph - N/A   Overcast
6:52 PM 26.6 °F 15.7 °F 24.8 °F 93% 30.06 in 3.0 mi ESE 12.7 mph - N/A   Overcast
6:55 PM 26.8 °F 15.4 °F 25.3 °F 94% 30.06 in 3.0 mi ESE 13.8 mph - 0.01 in   Overcast
7:00 PM 26.6 °F 14.7 °F 24.8 °F 93% 30.07 in 4.0 mi ESE 15.0 mph - N/A   Overcast
7:03 PM 26.6 °F 15.2 °F 24.8 °F 93% 30.07 in 4.0 mi ESE 13.8 mph - N/A   Overcast
7:23 PM 26.6 °F 16.2 °F 24.8 °F 93% 30.08 in 7.0 mi SE 11.5 mph - N/A   Overcast
7:55 PM 26.2 °F 13.8 °F 24.6 °F 94% 30.08 in 10.0 mi ESE 16.1 mph - 0.00 in   Overcast
8:03 PM 26.6 °F 15.7 °F 24.8 °F 93% 30.08 in 10.0 mi ESE 12.7 mph - N/A   Overcast
8:55 PM 25.2 °F 12.0 °F 23.7 °F 94% 30.07 in 10.0 mi ESE 17.3 mph - N/A   Overcast
8:56 PM 24.8 °F 11.5 °F 23.0 °F 93% 30.06 in 10.0 mi ESE 17.3 mph - N/A   Overcast
9:00 PM 24.8 °F 12.4 °F 23.0 °F 93% 30.07 in 8.0 mi ESE 15.0 mph - N/A   Overcast
9:02 PM 24.8 °F 12.9 °F 23.0 °F 93% 30.07 in 7.0 mi ESE 13.8 mph - N/A   Overcast
9:06 PM 24.8 °F 12.9 °F 23.0 °F 93% 30.08 in 6.0 mi ESE 13.8 mph - N/A   Overcast
9:11 PM 24.8 °F 13.4 °F 23.0 °F 93% 30.07 in 6.0 mi ESE 12.7 mph - N/A   Overcast
9:17 PM 24.8 °F 14.0 °F 23.0 °F 93% 30.07 in 6.0 mi ESE 11.5 mph - N/A   Overcast
9:21 PM 24.8 °F 13.4 °F 23.0 °F 93% 30.08 in 6.0 mi ESE 12.7 mph - N/A   Overcast
9:55 PM 24.1 °F 11.5 °F 22.6 °F 94% 30.06 in 6.0 mi ESE 15.0 mph - 0.00 in   Overcast
10:55 PM 23.5 °F 11.3 °F 22.1 °F 94% 30.02 in 7.0 mi SE 13.8 mph - N/A   Overcast
11:55 PM 23.4 °F 10.1 °F 21.9 °F 94% 29.99 in 6.0 mi SE 16.1 mph - N/A   Overcast